Regional Weather Roundup
Issued by NWS Lake Charles, LA

Home | Current Version | Previous Version | Text Only | Print | Product List | Glossary On
Versions: 1 2 3 4 5 6 7 8 9 10 11 12 13 14 15 16 17 18 19 20 21 22 23 24 25 26 27 28
000
ASUS44 KLCH 031710
RWRLCH
REGIONAL WEATHER ROUNDUP
NATIONAL WEATHER SERVICE LAKE CHARLES LA
1100 AM CST SAT DEC 03 2016

Note: "fair" indicates few or no clouds below 12,000 feet with no
significant weather and/or obstructions to visibility.


ACROSS SOUTHEAST TEXAS

CITY           SKY/WX    TMP DP  RH WIND       PRES   REMARKS
BEAUMONT       HVY RAIN  58  57  97 W23G31    29.97R VSB 3/4
BEAUMONT CITY  HVY RAIN  54  52  94 N10       29.95F
ORANGE         RAIN     N/A N/A N/A E17G23    29.92F
JASPER         MIX PCPN  50  49  96 N7        30.05F
$$

ACROSS CENTRAL LOUISIANA

CITY           SKY/WX    TMP DP  RH WIND       PRES   REMARKS
LEESVILLE      HVY RAIN  48  48 100 N10       30.06R VSB 5/8
FULLERTON      RAIN      49  48  97 VRB6      30.00S FOG
ALEXANDRIA INT HVY RAIN  49  47  93 E13G23    30.03F FOG
ESLER FIELD    HVY RAIN  49  48  97 E13G18    30.04F FOG
DERIDDER       HVY RAIN  50  49  96 N7        30.03R
OAKDALE        RAIN      52  50  95 E8G17     30.00F
OPELOUSAS      CLOUDY    49  47  93 E12G24    30.02F
$$

ACROSS SOUTHWEST AND SOUTH CENTRAL LOUISIANA

CITY           SKY/WX    TMP DP  RH WIND       PRES   REMARKS
SULPHUR        RAIN      57  55  91 E22G31    29.93F
LAKE CHARLES   LGT RAIN  56  55  97 E17G29    29.94F
CHENNAULT INT  NOT AVBL
CAMERON PHI    CLOUDY    61  59  94 E25G33    29.90F FOG
DEQUINCY       LGT RAIN  52  52  98 E8        29.95F
JENNINGS       CLOUDY    52  50  93 E20       29.97F
LAFAYETTE      CLOUDY    53  50  89 E9G20     30.02F
NEW IBERIA     PTSUNNY   56  49  77 E16G26    30.01F
ABBEVILLE      NOT AVBL
PATTERSON      CLOUDY   N/A N/A N/A E15       30.05F
SALT POINT     NOT AVBL
$$

SELECTED SITES ACROSS THE REGION

CITY           SKY/WX    TMP DP  RH WIND       PRES   REMARKS
HOUSTON BUSH   CLOUDY    54  52  93 N13       29.96R
HOUSTON HOBBY  CLOUDY    57  55  93 N13       29.92S
GALVESTON      RAIN      65  63  93 N20G28    29.87S FOG
COLLEGE STAT   CLOUDY    51  49  92 NE12      29.99R
CONROE         LGT RAIN  50  49  96 NE9       29.96F FOG
HUNTSVILLE     LGT RAIN  49  47  93 E12G22    29.96F FOG
LUFKIN         LGT RAIN  47  46  97 NE9       30.03F FOG
SHREVEPORT     HVY RAIN  49  49 100 E12       30.15S FOG
MONROE         RAIN      49  46  90 E12G20    30.20F
NATCHEZ MS     CLOUDY    48  43  81 E14G25    30.12F
BATON ROUGE    LGT RAIN  51  47  86 E14       30.10F
N.O. INTL ARPT CLOUDY    61  50  67 E13G20    30.11F
SLIDELL        CLOUDY    59  42  53 NE9       30.13F
$$

MARINE REPORTS

STATION/POSITION TIME  SKY/WX   TEMP    WIND        PRES    VSBY
                                AIR SEA DIR/SP/G
                 (UTC)          (F)     (DEG/KT/KT) (MB)    (MI)
BUOY 30 S HIGH I 1650            73 68  150/ 17/ 21 1010.9F
WVE H/P(F/S)=  8/ 9

SEA RIM ST PARK  1700            66      90/  3/  4 1013.0R
PORT ARTHUR      1648               63  100/ 14/ 20 1010.9F
SABINE PASS N    1648            63 64  100/ 26/ 35 1011.6F
TEXAS POINT      NOT AVBL
CALCASIEU PASS   1648            61 62  120/ 29/ 34   N/A
LK CHARLES BEACH 1648            53 65              1014.3F
MARSH ISLAND     1600            61                   N/A
FRESH WATER LOCK 1648            62 62   80/ 15/ 24 1015.0F
AMERADA PASS     1648            61 61   80/ 14/ 21 1017.1F
$$




USA.gov is the U.S. government's official web portal to all federal, state and local government web resources and services.